Rock Falls, IL

8:01 PM CST on February 20, 2017 (GMT -0600)
Whiteside County-Bittorf

Weather History for KSQI - August, 2013

Change the Weather History Date:

Saturday, August 10, 2013

  Actual Average Record
Temperature  
Mean Temperature 68 °F -  
Max Temperature 82 °F 78 °F 89 °F (2010)
Min Temperature 57 °F 58 °F 55 °F (1996)
Cooling Degree Days 4    
Growing Degree Days 18 (Base 50)    
Moisture  
Dew Point 56 °F    
Average Humidity 66    
Maximum Humidity 88    
Minimum Humidity 42    
Precipitation  
Precipitation 0.00 in - - ()
Sea Level Pressure  
Sea Level Pressure 30.13 in    
Wind  
Wind Speed 5 mph (NNW)    
Max Wind Speed 12 mph    
Max Gust Speed -    
Visibility 10 miles    
Events      
Averages and records for this station are not official NWS values.
T = Trace of Precipitation, MM = Missing Value Source: NWS Daily Summary

Daily Weather History Graph

Daily Weather History Graph

Search for Another Location

Airport or City:

Trip Planner

Search our weather history database for the weather conditions in past years. The results will help you decide how hot, cold, wet, or windy it might be!

Date:

Astronomy

Aug. 10, 2013 Rise Set
Actual Time 6:02 AM CDT 8:05 PM CDT
Civil Twilight 5:31 AM CDT 8:35 PM CDT
Nautical Twilight 4:54 AM CDT 9:12 PM CDT
Astronomical Twilight 4:13 AM CDT 9:52 PM CDT
Moon 9:53 AM CDT (8/10) 9:42 PM CDT (8/10)
Length of Visible Light 15h 03m
Length of Day
14h 02m
Waxing Crescent, 14% of the Moon is Illuminated
Aug 10
Waxing Crescent
Aug 14
First Quarter
Aug 20
Full
Aug 28
Last Quarter
Sep 5
New

Hourly Weather History & Observations

Time (CDT) Temp. Heat Index Dew Point Humidity Pressure Visibility Wind Dir Wind Speed Gust Speed Precip Events Conditions
12:15 AM 66.2 °F - 60.8 °F 83% 30.08 in 10.0 mi NW 4.6 mph - N/A   Clear
12:35 AM 64.4 °F - 59.0 °F 83% 30.09 in 10.0 mi NW 3.5 mph - N/A   Clear
12:55 AM 64.4 °F - 60.8 °F 88% 30.09 in 10.0 mi Calm Calm - N/A   Clear
1:15 AM 64.4 °F - 59.0 °F 83% 30.10 in 10.0 mi West 4.6 mph - N/A   Clear
1:35 AM 62.6 °F - 57.2 °F 82% 30.10 in 10.0 mi WNW 4.6 mph - N/A   Clear
1:55 AM 62.6 °F - 59.0 °F 88% 30.10 in 10.0 mi NW 4.6 mph - N/A   Clear
2:15 AM 62.6 °F - 59.0 °F 88% 30.10 in 10.0 mi WNW 4.6 mph - N/A   Clear
2:35 AM 62.6 °F - 57.2 °F 82% 30.10 in 10.0 mi WNW 3.5 mph - N/A   Clear
2:55 AM 62.6 °F - 57.2 °F 82% 30.11 in 10.0 mi West 4.6 mph - N/A   Clear
3:15 AM 60.8 °F - 57.2 °F 88% 30.11 in 10.0 mi WNW 4.6 mph - N/A   Clear
3:35 AM 60.8 °F - 55.4 °F 82% 30.11 in 10.0 mi NW 4.6 mph - N/A   Clear
3:55 AM 60.8 °F - 57.2 °F 88% 30.11 in 10.0 mi NW 4.6 mph - N/A   Clear
4:15 AM 60.8 °F - 57.2 °F 88% 30.11 in 10.0 mi Calm Calm - N/A   Clear
4:35 AM 59.0 °F - 55.4 °F 88% 30.11 in 10.0 mi NNW 4.6 mph - N/A   Clear
4:55 AM 59.0 °F - 55.4 °F 88% 30.12 in 10.0 mi Calm Calm - N/A   Clear
5:15 AM 60.8 °F - 55.4 °F 82% 30.12 in 10.0 mi NNW 4.6 mph - N/A   Clear
5:35 AM 59.0 °F - 55.4 °F 88% 30.12 in 10.0 mi Calm Calm - N/A   Clear
5:55 AM 59.0 °F - 55.4 °F 88% 30.12 in 10.0 mi Calm Calm - N/A   Clear
6:15 AM 59.0 °F - 53.6 °F 82% 30.12 in 10.0 mi North 3.5 mph - N/A   Clear
6:35 AM 59.0 °F - 55.4 °F 88% 30.13 in 10.0 mi NNW 5.8 mph - N/A   Clear
6:55 AM 60.8 °F - 55.4 °F 82% 30.14 in 10.0 mi Calm Calm - N/A   Clear
7:15 AM 62.6 °F - 55.4 °F 77% 30.13 in 10.0 mi Calm Calm - N/A   Clear
7:35 AM 64.4 °F - 57.2 °F 77% 30.13 in 10.0 mi North 4.6 mph - N/A   Clear
7:55 AM 64.4 °F - 57.2 °F 77% 30.14 in 10.0 mi North 5.8 mph - N/A   Clear
8:15 AM 66.2 °F - 57.2 °F 73% 30.14 in 10.0 mi North 5.8 mph - N/A   Clear
8:35 AM 68.0 °F - 57.2 °F 68% 30.15 in 10.0 mi North 4.6 mph - N/A   Clear
8:55 AM 69.8 °F - 57.2 °F 64% 30.15 in 10.0 mi NNW 4.6 mph - N/A   Clear
9:15 AM 69.8 °F - 59.0 °F 68% 30.15 in 10.0 mi NNW 3.5 mph - N/A   Clear
9:35 AM 71.6 °F - 59.0 °F 64% 30.16 in 10.0 mi North 3.5 mph - N/A   Clear
9:55 AM 73.4 °F - 59.0 °F 61% 30.16 in 10.0 mi NNW 4.6 mph - N/A   Clear
10:15 AM 75.2 °F - 59.0 °F 57% 30.16 in 10.0 mi North 6.9 mph - N/A   Clear
10:35 AM 75.2 °F - 60.8 °F 61% 30.16 in 10.0 mi NNW 5.8 mph - N/A   Clear
10:55 AM 75.2 °F - 59.0 °F 57% 30.17 in 10.0 mi NW 9.2 mph - N/A   Clear
11:15 AM 77.0 °F - 57.2 °F 50% 30.17 in 10.0 mi North 9.2 mph - N/A   Clear
11:35 AM 78.8 °F - 59.0 °F 51% 30.17 in 10.0 mi North 6.9 mph - N/A   Clear
11:55 AM 78.8 °F - 57.2 °F 47% 30.16 in 10.0 mi North 8.1 mph - N/A   Clear
12:15 PM 80.6 °F 80.8 °F 57.2 °F 45% 30.16 in 10.0 mi North 5.8 mph - N/A   Clear
12:35 PM 80.6 °F 80.5 °F 55.4 °F 42% 30.16 in 10.0 mi North 6.9 mph - N/A   Clear
12:55 PM 80.6 °F 80.8 °F 57.2 °F 45% 30.16 in 10.0 mi NW 5.8 mph - N/A   Scattered Clouds
1:15 PM 78.8 °F - 55.4 °F 44% 30.16 in 10.0 mi North 8.1 mph - N/A   Mostly Cloudy
1:35 PM 80.6 °F 80.5 °F 55.4 °F 42% 30.15 in 10.0 mi NW 6.9 mph - N/A   Overcast
1:55 PM 78.8 °F - 55.4 °F 44% 30.15 in 10.0 mi NNW 9.2 mph - N/A   Mostly Cloudy
2:15 PM 80.6 °F 80.5 °F 55.4 °F 42% 30.15 in 10.0 mi NNW 10.4 mph - N/A   Mostly Cloudy
2:35 PM 80.6 °F 80.5 °F 55.4 °F 42% 30.15 in 10.0 mi North 6.9 mph - N/A   Mostly Cloudy
2:55 PM 80.6 °F 80.5 °F 55.4 °F 42% 30.15 in 10.0 mi WNW 11.5 mph - N/A   Mostly Cloudy
3:15 PM 80.6 °F 80.5 °F 55.4 °F 42% 30.15 in 10.0 mi North 11.5 mph - N/A   Overcast
3:35 PM 78.8 °F - 55.4 °F 44% 30.14 in 10.0 mi North 9.2 mph - N/A   Overcast
4:15 PM 80.6 °F 80.5 °F 55.4 °F 42% 30.13 in 10.0 mi NNW 11.5 mph - N/A   Mostly Cloudy
4:35 PM 80.6 °F 80.5 °F 55.4 °F 42% 30.13 in 10.0 mi NNW 10.4 mph - N/A   Mostly Cloudy
4:55 PM 80.6 °F 80.5 °F 55.4 °F 42% 30.12 in 10.0 mi NNW 8.1 mph - N/A   Partly Cloudy
5:15 PM 80.6 °F 80.5 °F 55.4 °F 42% 30.12 in 10.0 mi NNW 5.8 mph - N/A   Scattered Clouds
5:35 PM 78.8 °F - 55.4 °F 44% 30.12 in 10.0 mi NW 9.2 mph - N/A   Partly Cloudy
5:55 PM 78.8 °F - 55.4 °F 44% 30.12 in 10.0 mi NNW 11.5 mph - N/A   Partly Cloudy
6:15 PM 78.8 °F - 55.4 °F 44% 30.12 in 10.0 mi NNW 8.1 mph - N/A   Partly Cloudy
6:35 PM 77.0 °F - 55.4 °F 47% 30.12 in 10.0 mi NNW 6.9 mph - N/A   Clear
6:56 PM 75.2 °F - 55.4 °F 50% 30.11 in 10.0 mi North 9.2 mph - N/A   Clear
7:15 PM 75.2 °F - 55.4 °F 50% 30.11 in 10.0 mi North 8.1 mph - N/A   Clear
7:35 PM 73.4 °F - 55.4 °F 53% 30.11 in 10.0 mi NNW 4.6 mph - N/A   Clear
7:55 PM 71.6 °F - 55.4 °F 57% 30.12 in 10.0 mi NNW 5.8 mph - N/A   Clear
8:15 PM 69.8 °F - 53.6 °F 56% 30.12 in 10.0 mi NW 4.6 mph - N/A   Clear
8:35 PM 66.2 °F - 55.4 °F 68% 30.13 in 10.0 mi NW 3.5 mph - N/A   Clear
8:55 PM 66.2 °F - 55.4 °F 68% 30.13 in 10.0 mi Calm Calm - N/A   Clear
9:15 PM 64.4 °F - 55.4 °F 73% 30.14 in 10.0 mi Calm Calm - N/A   Clear
9:35 PM 64.4 °F - 55.4 °F 73% 30.15 in 10.0 mi North 3.5 mph - N/A   Clear
9:55 PM 66.2 °F - 55.4 °F 68% 30.15 in 10.0 mi Calm Calm - N/A   Clear
10:15 PM 62.6 °F - 55.4 °F 77% 30.14 in 10.0 mi Calm Calm - N/A   Clear
10:35 PM 62.6 °F - 55.4 °F 77% 30.14 in 10.0 mi Calm Calm - N/A   Clear
10:55 PM 62.6 °F - 55.4 °F 77% 30.14 in 10.0 mi Calm Calm - N/A   Clear
11:15 PM 59.0 °F - 53.6 °F 82% 30.14 in 10.0 mi Calm Calm - N/A   Clear
11:35 PM 57.2 °F - 53.6 °F 88% 30.14 in 10.0 mi Calm Calm - N/A   Clear
11:55 PM 57.2 °F - 53.6 °F 88% 30.13 in 10.0 mi Calm Calm - N/A   Clear